Year,Month,Day,Hour,Minute,Value (Times are PST for temperature in C)
2010,04,22,00,00,8.60
2010,04,22,00,01,8.60
2010,04,22,00,02,8.60
2010,04,22,00,03,8.60
2010,04,22,00,04,8.50
2010,04,22,00,05,8.50
2010,04,22,00,06,8.50
2010,04,22,00,07,8.40
2010,04,22,00,08,8.40
2010,04,22,00,09,8.40
2010,04,22,00,10,8.40
2010,04,22,00,11,8.40
2010,04,22,00,12,8.40
2010,04,22,00,13,8.30
2010,04,22,00,14,8.30
2010,04,22,00,15,8.30
2010,04,22,00,16,8.30
2010,04,22,00,17,8.30
2010,04,22,00,18,8.30
2010,04,22,00,19,8.30
2010,04,22,00,20,8.30
2010,04,22,00,21,8.20
2010,04,22,00,22,8.20
2010,04,22,00,23,8.20
2010,04,22,00,24,8.20
2010,04,22,00,25,8.20
2010,04,22,00,26,8.20
2010,04,22,00,27,8.20
2010,04,22,00,28,8.20
2010,04,22,00,29,8.20
2010,04,22,00,30,8.20
2010,04,22,00,31,8.20
2010,04,22,00,32,8.20
2010,04,22,00,33,8.20
2010,04,22,00,34,8.20
2010,04,22,00,35,8.20
2010,04,22,00,36,8.20
2010,04,22,00,37,8.20
2010,04,22,00,38,8.20
2010,04,22,00,39,8.20
2010,04,22,00,40,8.20
2010,04,22,00,41,8.20
2010,04,22,00,42,8.20
2010,04,22,00,43,8.20
2010,04,22,00,44,8.20
2010,04,22,00,45,8.20
2010,04,22,00,46,8.20
2010,04,22,00,47,8.20
2010,04,22,00,48,8.20
2010,04,22,00,49,8.20
2010,04,22,00,50,8.20
2010,04,22,00,51,8.20
2010,04,22,00,52,8.20
2010,04,22,00,53,8.20
2010,04,22,00,54,8.20
2010,04,22,00,55,8.20
2010,04,22,00,56,8.20
2010,04,22,00,57,8.20
2010,04,22,00,58,8.20
2010,04,22,00,59,8.20
2010,04,22,01,00,8.20
2010,04,22,01,01,8.20
2010,04,22,01,02,8.20
2010,04,22,01,03,8.20
2010,04,22,01,04,8.30
2010,04,22,01,05,8.30
2010,04,22,01,06,8.30
2010,04,22,01,07,8.30
2010,04,22,01,08,8.30
2010,04,22,01,09,8.30
2010,04,22,01,10,8.30
2010,04,22,01,11,8.30
2010,04,22,01,12,8.30
2010,04,22,01,13,8.30
2010,04,22,01,14,8.40
2010,04,22,01,15,8.40
2010,04,22,01,16,8.40
2010,04,22,01,17,8.40
2010,04,22,01,18,8.40
2010,04,22,01,19,8.40
2010,04,22,01,20,8.40
2010,04,22,01,21,8.40
2010,04,22,01,22,8.40
2010,04,22,01,23,8.40
2010,04,22,01,24,8.40
2010,04,22,01,25,8.40
2010,04,22,01,26,8.40
2010,04,22,01,27,8.40
2010,04,22,01,28,8.40
2010,04,22,01,29,8.40
2010,04,22,01,30,8.40
2010,04,22,01,31,8.40
2010,04,22,01,32,8.30
2010,04,22,01,33,8.30
2010,04,22,01,34,8.30
2010,04,22,01,35,8.30
2010,04,22,01,36,8.30
2010,04,22,01,37,8.30
2010,04,22,01,38,8.30
2010,04,22,01,39,8.30
2010,04,22,01,40,8.30
2010,04,22,01,41,8.30
2010,04,22,01,42,8.30
2010,04,22,01,43,8.20
2010,04,22,01,44,8.20
2010,04,22,01,45,8.20
2010,04,22,01,46,8.20
2010,04,22,01,47,8.20
2010,04,22,01,48,8.20
2010,04,22,01,49,8.20
2010,04,22,01,50,8.20
2010,04,22,01,51,8.20
2010,04,22,01,52,8.10
2010,04,22,01,53,8.10
2010,04,22,01,54,8.10
2010,04,22,01,55,8.10
2010,04,22,01,56,8.10
2010,04,22,01,57,8.10
2010,04,22,01,58,8.10
2010,04,22,01,59,8.10
2010,04,22,02,00,8.10
2010,04,22,02,01,8.10
2010,04,22,02,02,8.20
2010,04,22,02,03,8.20
2010,04,22,02,04,8.20
2010,04,22,02,05,8.20
2010,04,22,02,06,8.20
2010,04,22,02,07,8.20
2010,04,22,02,08,8.20
2010,04,22,02,09,8.20
2010,04,22,02,10,8.20
2010,04,22,02,11,8.20
2010,04,22,02,12,8.20
2010,04,22,02,13,8.20
2010,04,22,02,14,8.20
2010,04,22,02,15,8.20
2010,04,22,02,16,8.20
2010,04,22,02,17,8.20
2010,04,22,02,18,8.20
2010,04,22,02,19,8.20
2010,04,22,02,20,8.20
2010,04,22,02,21,8.20
2010,04,22,02,22,8.20
2010,04,22,02,23,8.20
2010,04,22,02,24,8.20
2010,04,22,02,25,8.20
2010,04,22,02,26,8.20
2010,04,22,02,27,8.20
2010,04,22,02,28,8.20
2010,04,22,02,29,8.20
2010,04,22,02,30,8.20
2010,04,22,02,31,8.20
2010,04,22,02,32,8.20
2010,04,22,02,33,8.20
2010,04,22,02,34,8.20
2010,04,22,02,35,8.20
2010,04,22,02,36,8.20
2010,04,22,02,37,8.20
2010,04,22,02,38,8.20
2010,04,22,02,39,8.20
2010,04,22,02,40,8.20
2010,04,22,02,41,8.20
2010,04,22,02,42,8.20
2010,04,22,02,43,8.20
2010,04,22,02,44,8.20
2010,04,22,02,45,8.10
2010,04,22,02,46,8.10
2010,04,22,02,47,8.10
2010,04,22,02,48,8.10
2010,04,22,02,49,8.10
2010,04,22,02,50,8.10
2010,04,22,02,51,8.10
2010,04,22,02,52,8.10
2010,04,22,02,53,8.10
2010,04,22,02,54,8.10
2010,04,22,02,55,8.10
2010,04,22,02,56,8.10
2010,04,22,02,57,8.10
2010,04,22,02,58,8.10
2010,04,22,02,59,8.20
2010,04,22,03,00,8.20
2010,04,22,03,01,8.20
2010,04,22,03,02,8.20
2010,04,22,03,03,8.20
2010,04,22,03,04,8.20
2010,04,22,03,05,8.20
2010,04,22,03,06,8.20
2010,04,22,03,07,8.20
2010,04,22,03,08,8.20
2010,04,22,03,09,8.20
2010,04,22,03,10,8.20
2010,04,22,03,11,8.20
2010,04,22,03,12,8.20
2010,04,22,03,13,8.20
2010,04,22,03,14,8.20
2010,04,22,03,15,8.20
2010,04,22,03,16,8.20
2010,04,22,03,17,8.20
2010,04,22,03,18,8.10
2010,04,22,03,19,8.10
2010,04,22,03,20,8.10
2010,04,22,03,21,8.10
2010,04,22,03,22,8.10
2010,04,22,03,23,8.10
2010,04,22,03,24,8.10
2010,04,22,03,25,8.10
2010,04,22,03,26,8.10
2010,04,22,03,27,8.10
2010,04,22,03,28,8.10
2010,04,22,03,29,8.10
2010,04,22,03,30,8.10
2010,04,22,03,31,8.20
2010,04,22,03,32,8.20
2010,04,22,03,33,8.20
2010,04,22,03,34,8.20
2010,04,22,03,35,8.10
2010,04,22,03,36,8.10
2010,04,22,03,37,8.10
2010,04,22,03,38,8.10
2010,04,22,03,39,8.10
2010,04,22,03,40,8.10
2010,04,22,03,41,8.10
2010,04,22,03,42,8.10
2010,04,22,03,43,8.10
2010,04,22,03,44,8.10
2010,04,22,03,45,8.10
2010,04,22,03,46,8.10
2010,04,22,03,47,8.10
2010,04,22,03,48,8.10
2010,04,22,03,49,8.10
2010,04,22,03,50,8.10
2010,04,22,03,51,8.10
2010,04,22,03,52,8.10
2010,04,22,03,53,8.00
2010,04,22,03,54,8.00
2010,04,22,03,55,8.00
2010,04,22,03,56,8.00
2010,04,22,03,57,8.00
2010,04,22,03,58,8.00
2010,04,22,03,59,8.00
2010,04,22,04,00,8.00
2010,04,22,04,01,7.90
2010,04,22,04,02,7.90
2010,04,22,04,03,7.90
2010,04,22,04,04,7.90
2010,04,22,04,05,7.90
2010,04,22,04,06,7.80
2010,04,22,04,07,7.80
2010,04,22,04,08,7.80
2010,04,22,04,09,7.70
2010,04,22,04,10,7.70
2010,04,22,04,11,7.70
2010,04,22,04,12,7.70
2010,04,22,04,13,7.60
2010,04,22,04,14,7.60
2010,04,22,04,15,7.60
2010,04,22,04,16,7.60
2010,04,22,04,17,7.60
2010,04,22,04,18,7.50
2010,04,22,04,19,7.50
2010,04,22,04,20,7.50
2010,04,22,04,21,7.40
2010,04,22,04,22,7.40
2010,04,22,04,23,7.40
2010,04,22,04,24,7.40
2010,04,22,04,25,7.40
2010,04,22,04,26,7.40
2010,04,22,04,27,7.40
2010,04,22,04,28,7.30
2010,04,22,04,29,7.30
2010,04,22,04,30,7.30
2010,04,22,04,31,7.30
2010,04,22,04,32,7.30
2010,04,22,04,33,7.30
2010,04,22,04,34,7.20
2010,04,22,04,35,7.20
2010,04,22,04,36,7.20
2010,04,22,04,37,7.20
2010,04,22,04,38,7.20
2010,04,22,04,39,7.20
2010,04,22,04,40,7.20
2010,04,22,04,41,7.20
2010,04,22,04,42,7.20
2010,04,22,04,43,7.10
2010,04,22,04,44,7.10
2010,04,22,04,45,7.10
2010,04,22,04,46,7.10
2010,04,22,04,47,7.10
2010,04,22,04,48,7.10
2010,04,22,04,49,7.00
2010,04,22,04,50,7.00
2010,04,22,04,51,7.00
2010,04,22,04,52,7.00
2010,04,22,04,53,7.00
2010,04,22,04,54,7.00
2010,04,22,04,55,6.90
2010,04,22,04,56,6.90
2010,04,22,04,57,6.90
2010,04,22,04,58,6.90
2010,04,22,04,59,6.80
2010,04,22,05,00,6.80
2010,04,22,05,01,6.80
2010,04,22,05,02,6.80
2010,04,22,05,03,6.80
2010,04,22,05,04,6.80
2010,04,22,05,05,6.80
2010,04,22,05,06,6.70
2010,04,22,05,07,6.70
2010,04,22,05,08,6.70
2010,04,22,05,09,6.70
2010,04,22,05,10,6.70
2010,04,22,05,11,6.70
2010,04,22,05,12,6.70
2010,04,22,05,13,6.80
2010,04,22,05,14,6.80
2010,04,22,05,15,6.80
2010,04,22,05,16,6.80
2010,04,22,05,17,6.80
2010,04,22,05,18,6.80
2010,04,22,05,19,6.90
2010,04,22,05,20,6.90
2010,04,22,05,21,6.90
2010,04,22,05,22,6.90
2010,04,22,05,23,6.90
2010,04,22,05,24,6.90
2010,04,22,05,25,6.90
2010,04,22,05,26,7.00
2010,04,22,05,27,7.00
2010,04,22,05,28,7.00
2010,04,22,05,29,7.00
2010,04,22,05,30,7.00
2010,04,22,05,31,6.90
2010,04,22,05,32,6.90
2010,04,22,05,33,6.90
2010,04,22,05,34,6.90
2010,04,22,05,35,6.90
2010,04,22,05,36,6.90
2010,04,22,05,37,6.90
2010,04,22,05,38,6.90
2010,04,22,05,39,6.90
2010,04,22,05,40,6.90
2010,04,22,05,41,6.90
2010,04,22,05,42,6.90
2010,04,22,05,43,6.90
2010,04,22,05,44,6.90
2010,04,22,05,45,6.90
2010,04,22,05,46,6.80
2010,04,22,05,47,6.80
2010,04,22,05,48,6.80
2010,04,22,05,49,6.80
2010,04,22,05,50,6.80
2010,04,22,05,51,6.80
2010,04,22,05,52,6.80
2010,04,22,05,53,6.80
2010,04,22,05,54,6.80
2010,04,22,05,55,6.80
2010,04,22,05,56,6.80
2010,04,22,05,57,6.80
2010,04,22,05,58,6.70
2010,04,22,05,59,6.70
2010,04,22,06,00,6.70
2010,04,22,06,01,6.70
2010,04,22,06,02,6.70
2010,04,22,06,03,6.70
2010,04,22,06,04,6.60
2010,04,22,06,05,6.60
2010,04,22,06,06,6.50
2010,04,22,06,07,6.50
2010,04,22,06,08,6.40
2010,04,22,06,09,6.40
2010,04,22,06,10,6.30
2010,04,22,06,11,6.30
2010,04,22,06,12,6.30
2010,04,22,06,13,6.20
2010,04,22,06,14,6.20
2010,04,22,06,15,6.20
2010,04,22,06,16,6.20
2010,04,22,06,17,6.10
2010,04,22,06,18,6.10
2010,04,22,06,19,6.10
2010,04,22,06,20,6.10
2010,04,22,06,21,6.10
2010,04,22,06,22,6.10
2010,04,22,06,23,6.10
2010,04,22,06,24,6.10
2010,04,22,06,25,6.10
2010,04,22,06,26,6.10
2010,04,22,06,27,6.10
2010,04,22,06,28,6.10
2010,04,22,06,29,6.10
2010,04,22,06,30,6.10
2010,04,22,06,31,6.10
2010,04,22,06,32,6.10
2010,04,22,06,33,6.00
2010,04,22,06,34,6.10
2010,04,22,06,35,6.00
2010,04,22,06,36,6.00
2010,04,22,06,37,6.00
2010,04,22,06,38,5.90
2010,04,22,06,39,5.90
2010,04,22,06,40,5.90
2010,04,22,06,41,5.90
2010,04,22,06,42,5.90
2010,04,22,06,43,5.90
2010,04,22,06,44,5.80
2010,04,22,06,45,5.80
2010,04,22,06,46,5.80
2010,04,22,06,47,5.80
2010,04,22,06,48,5.70
2010,04,22,06,49,5.70
2010,04,22,06,50,5.70
2010,04,22,06,51,5.60
2010,04,22,06,52,5.60
2010,04,22,06,53,5.60
2010,04,22,06,54,5.50
2010,04,22,06,55,5.50
2010,04,22,06,56,5.50
2010,04,22,06,57,5.40
2010,04,22,06,58,5.40
2010,04,22,06,59,5.40
2010,04,22,07,00,5.40
2010,04,22,07,01,5.40
2010,04,22,07,02,5.30
2010,04,22,07,03,5.30
2010,04,22,07,04,5.30
2010,04,22,07,05,5.30
2010,04,22,07,06,5.30
2010,04,22,07,07,5.30
2010,04,22,07,08,5.30
2010,04,22,07,09,5.40
2010,04,22,07,10,5.40
2010,04,22,07,11,5.40
2010,04,22,07,12,5.40
2010,04,22,07,13,5.40
2010,04,22,07,14,5.40
2010,04,22,07,15,5.50
2010,04,22,07,16,5.50
2010,04,22,07,17,5.50
2010,04,22,07,18,5.50
2010,04,22,07,19,5.60
2010,04,22,07,20,5.60
2010,04,22,07,21,5.60
2010,04,22,07,22,5.60
2010,04,22,07,23,5.60
2010,04,22,07,24,5.60
2010,04,22,07,25,5.60
2010,04,22,07,26,5.60
2010,04,22,07,27,5.70
2010,04,22,07,28,5.70
2010,04,22,07,29,5.70
2010,04,22,07,30,5.70
2010,04,22,07,31,5.70
2010,04,22,07,32,5.70
2010,04,22,07,33,5.70
2010,04,22,07,34,5.70
2010,04,22,07,35,5.70
2010,04,22,07,36,5.80
2010,04,22,07,37,5.80
2010,04,22,07,38,5.80
2010,04,22,07,39,5.80
2010,04,22,07,40,5.90
2010,04,22,07,41,5.90
2010,04,22,07,42,5.90
2010,04,22,07,43,6.00
2010,04,22,07,44,6.00
2010,04,22,07,45,6.10
2010,04,22,07,46,6.10
2010,04,22,07,47,6.10
2010,04,22,07,48,6.20
2010,04,22,07,49,6.20
2010,04,22,07,50,6.30
2010,04,22,07,51,6.30
2010,04,22,07,52,6.40
2010,04,22,07,53,6.50
2010,04,22,07,54,6.60
2010,04,22,07,55,6.70
2010,04,22,07,56,6.80
2010,04,22,07,57,7.00
2010,04,22,07,58,7.10
2010,04,22,07,59,7.20
2010,04,22,08,00,7.40
2010,04,22,08,01,7.50
2010,04,22,08,02,7.60
2010,04,22,08,03,7.70
2010,04,22,08,04,7.80
2010,04,22,08,05,7.90
2010,04,22,08,06,8.00
2010,04,22,08,07,8.00
2010,04,22,08,08,8.10
2010,04,22,08,09,8.10
2010,04,22,08,10,8.20
2010,04,22,08,11,8.20
2010,04,22,08,12,8.30
2010,04,22,08,13,8.40
2010,04,22,08,14,8.50
2010,04,22,08,15,8.60
2010,04,22,08,16,8.70
2010,04,22,08,17,8.70
2010,04,22,08,18,8.80
2010,04,22,08,19,8.90
2010,04,22,08,20,8.90
2010,04,22,08,21,9.00
2010,04,22,08,22,9.10
2010,04,22,08,23,9.10
2010,04,22,08,24,9.20
2010,04,22,08,25,9.20
2010,04,22,08,26,9.30
2010,04,22,08,27,9.30
2010,04,22,08,28,9.40
2010,04,22,08,29,9.40
2010,04,22,08,30,9.40
2010,04,22,08,31,9.50
2010,04,22,08,32,9.50
2010,04,22,08,33,9.60
2010,04,22,08,34,9.60
2010,04,22,08,35,9.70
2010,04,22,08,36,9.70
2010,04,22,08,37,9.80
2010,04,22,08,38,9.80
2010,04,22,08,39,9.80
2010,04,22,08,40,9.90
2010,04,22,08,41,10.00
2010,04,22,08,42,10.00
2010,04,22,08,43,10.00
2010,04,22,08,44,10.10
2010,04,22,08,45,10.10
2010,04,22,08,46,10.10
2010,04,22,08,47,10.10
2010,04,22,08,48,10.10
2010,04,22,08,49,10.10
2010,04,22,08,50,10.10
2010,04,22,08,51,10.10
2010,04,22,08,52,10.20
2010,04,22,08,53,10.20
2010,04,22,08,54,10.20
2010,04,22,08,55,10.20
2010,04,22,08,56,10.20
2010,04,22,08,57,10.30
2010,04,22,08,58,10.30
2010,04,22,08,59,10.40
2010,04,22,09,00,10.40
2010,04,22,09,01,10.50
2010,04,22,09,02,10.60
2010,04,22,09,03,10.70
2010,04,22,09,04,10.70
2010,04,22,09,05,10.80
2010,04,22,09,06,10.80
2010,04,22,09,07,10.90
2010,04,22,09,08,10.90
2010,04,22,09,09,10.90
2010,04,22,09,10,10.90
2010,04,22,09,11,11.00
2010,04,22,09,12,10.90
2010,04,22,09,13,10.90
2010,04,22,09,14,10.90
2010,04,22,09,15,10.90
2010,04,22,09,16,10.90
2010,04,22,09,17,10.90
2010,04,22,09,18,10.90
2010,04,22,09,19,10.90
2010,04,22,09,20,10.90
2010,04,22,09,21,10.90
2010,04,22,09,22,10.90
2010,04,22,09,23,10.90
2010,04,22,09,24,10.90
2010,04,22,09,25,11.00
2010,04,22,09,26,11.00
2010,04,22,09,27,11.00
2010,04,22,09,28,10.90
2010,04,22,09,29,10.90
2010,04,22,09,30,10.90
2010,04,22,09,31,10.90
2010,04,22,09,32,11.00
2010,04,22,09,33,11.00
2010,04,22,09,34,11.00
2010,04,22,09,35,11.10
2010,04,22,09,36,11.00
2010,04,22,09,37,11.00
2010,04,22,09,38,11.00
2010,04,22,09,39,11.00
2010,04,22,09,40,11.00
2010,04,22,09,41,11.00
2010,04,22,09,42,11.00
2010,04,22,09,43,11.00
2010,04,22,09,44,11.00
2010,04,22,09,45,11.00
2010,04,22,09,46,10.90
2010,04,22,09,47,11.00
2010,04,22,09,48,11.00
2010,04,22,09,49,11.00
2010,04,22,09,50,11.10
2010,04,22,09,51,11.10
2010,04,22,09,52,11.10
2010,04,22,09,53,11.10
2010,04,22,09,54,11.10
2010,04,22,09,55,11.20
2010,04,22,09,56,11.20
2010,04,22,09,57,11.20
2010,04,22,09,58,11.20
2010,04,22,09,59,11.20
2010,04,22,10,00,11.20
2010,04,22,10,01,11.20
2010,04,22,10,02,11.20
2010,04,22,10,03,11.30
2010,04,22,10,04,11.30
2010,04,22,10,05,11.30
2010,04,22,10,06,11.40
2010,04,22,10,07,11.40
2010,04,22,10,08,11.50
2010,04,22,10,09,11.50
2010,04,22,10,10,11.60
2010,04,22,10,11,11.60
2010,04,22,10,12,11.70
2010,04,22,10,13,11.70
2010,04,22,10,14,11.80
2010,04,22,10,15,11.80
2010,04,22,10,16,11.80
2010,04,22,10,17,11.80
2010,04,22,10,18,11.80
2010,04,22,10,19,11.80
2010,04,22,10,20,11.80
2010,04,22,10,21,11.80
2010,04,22,10,22,11.80
2010,04,22,10,23,11.90
2010,04,22,10,24,12.00
2010,04,22,10,25,12.00
2010,04,22,10,26,12.10
2010,04,22,10,27,12.20
2010,04,22,10,28,12.20
2010,04,22,10,29,12.30
2010,04,22,10,30,12.30
2010,04,22,10,31,12.20
2010,04,22,10,32,12.10
2010,04,22,10,33,12.10
2010,04,22,10,34,12.00
2010,04,22,10,35,12.00
2010,04,22,10,36,11.90
2010,04,22,10,37,11.90
2010,04,22,10,38,11.80
2010,04,22,10,39,11.80
2010,04,22,10,40,11.80
2010,04,22,10,41,11.80
2010,04,22,10,42,11.80
2010,04,22,10,43,11.80
2010,04,22,10,44,11.80
2010,04,22,10,45,11.80
2010,04,22,10,46,11.90
2010,04,22,10,47,12.00
2010,04,22,10,48,12.00
2010,04,22,10,49,12.20
2010,04,22,10,50,12.20
2010,04,22,10,51,12.30
2010,04,22,10,52,12.40
2010,04,22,10,53,12.50
2010,04,22,10,54,12.60
2010,04,22,10,55,12.60
2010,04,22,10,56,12.60
2010,04,22,10,57,12.60
2010,04,22,10,58,12.50
2010,04,22,10,59,12.40
2010,04,22,11,00,12.40
2010,04,22,11,01,12.30
2010,04,22,11,02,12.30
2010,04,22,11,03,12.20
2010,04,22,11,04,12.20
2010,04,22,11,05,12.20
2010,04,22,11,06,12.20
2010,04,22,11,07,12.20
2010,04,22,11,08,12.20
2010,04,22,11,09,12.20
2010,04,22,11,10,12.20
2010,04,22,11,11,12.20
2010,04,22,11,12,12.20
2010,04,22,11,13,12.20
2010,04,22,11,14,12.20
2010,04,22,11,15,12.10
2010,04,22,11,16,12.10
2010,04,22,11,17,12.10
2010,04,22,11,18,12.00
2010,04,22,11,19,12.00
2010,04,22,11,20,12.00
2010,04,22,11,21,11.90
2010,04,22,11,22,11.90
2010,04,22,11,23,11.90
2010,04,22,11,24,11.90
2010,04,22,11,25,11.80
2010,04,22,11,26,11.80
2010,04,22,11,27,11.80
2010,04,22,11,28,11.80
2010,04,22,11,29,11.70
2010,04,22,11,30,11.70
2010,04,22,11,31,11.70
2010,04,22,11,32,11.70
2010,04,22,11,33,11.70
2010,04,22,11,34,11.70
2010,04,22,11,35,11.70
2010,04,22,11,36,11.70
2010,04,22,11,37,11.70
2010,04,22,11,38,11.70
2010,04,22,11,39,11.70
2010,04,22,11,40,11.80
2010,04,22,11,41,11.90
2010,04,22,11,42,12.00
2010,04,22,11,43,12.10
2010,04,22,11,44,12.10
2010,04,22,11,45,12.10
2010,04,22,11,46,12.10
2010,04,22,11,47,12.10
2010,04,22,11,48,12.10
2010,04,22,11,49,12.10
2010,04,22,11,50,12.10
2010,04,22,11,51,12.10
2010,04,22,11,52,12.10
2010,04,22,11,53,12.10
2010,04,22,11,54,12.20
2010,04,22,11,55,12.20
2010,04,22,11,56,12.20
2010,04,22,11,57,12.20
2010,04,22,11,58,12.20
2010,04,22,11,59,12.20
2010,04,22,12,00,12.20
2010,04,22,12,01,12.10
2010,04,22,12,02,12.10
2010,04,22,12,03,11.90
2010,04,22,12,04,11.90
2010,04,22,12,05,11.90
2010,04,22,12,06,11.90
2010,04,22,12,07,12.00
2010,04,22,12,08,12.00
2010,04,22,12,09,12.10
2010,04,22,12,10,12.10
2010,04,22,12,11,12.20
2010,04,22,12,12,12.20
2010,04,22,12,13,12.20
2010,04,22,12,14,12.20
2010,04,22,12,15,12.20
2010,04,22,12,16,12.30
2010,04,22,12,17,12.30
2010,04,22,12,18,12.30
2010,04,22,12,19,12.20
2010,04,22,12,20,12.20
2010,04,22,12,21,12.20
2010,04,22,12,22,12.20
2010,04,22,12,23,12.20
2010,04,22,12,24,12.20
2010,04,22,12,25,12.30
2010,04,22,12,26,12.30
2010,04,22,12,27,12.40
2010,04,22,12,28,12.50
2010,04,22,12,29,12.60
2010,04,22,12,30,12.70
2010,04,22,12,31,12.70
2010,04,22,12,32,12.70
2010,04,22,12,33,12.70
2010,04,22,12,34,12.70
2010,04,22,12,35,12.70
2010,04,22,12,36,12.70
2010,04,22,12,37,12.80
2010,04,22,12,38,12.80
2010,04,22,12,39,12.90
2010,04,22,12,40,13.00
2010,04,22,12,41,13.10
2010,04,22,12,42,13.20
2010,04,22,12,43,13.20
2010,04,22,12,44,13.20
2010,04,22,12,45,13.20
2010,04,22,12,46,13.10
2010,04,22,12,47,13.10
2010,04,22,12,48,12.90
2010,04,22,12,49,12.80
2010,04,22,12,50,12.80
2010,04,22,12,51,12.70
2010,04,22,12,52,12.70
2010,04,22,12,53,12.80
2010,04,22,12,54,12.80
2010,04,22,12,55,12.80
2010,04,22,12,56,12.80
2010,04,22,12,57,12.90
2010,04,22,12,58,12.90
2010,04,22,12,59,12.80
2010,04,22,13,00,12.80
2010,04,22,13,01,12.70
2010,04,22,13,02,12.70
2010,04,22,13,03,12.70
2010,04,22,13,04,12.70
2010,04,22,13,05,12.80
2010,04,22,13,06,12.90
2010,04,22,13,07,13.00
2010,04,22,13,08,13.10
2010,04,22,13,09,13.20
2010,04,22,13,10,13.30
2010,04,22,13,11,13.30
2010,04,22,13,12,13.20
2010,04,22,13,13,13.10
2010,04,22,13,14,13.00
2010,04,22,13,15,12.90
2010,04,22,13,16,12.90
2010,04,22,13,17,12.80
2010,04,22,13,18,12.80
2010,04,22,13,19,12.80
2010,04,22,13,20,12.90
2010,04,22,13,21,12.90
2010,04,22,13,22,12.90
2010,04,22,13,23,12.80
2010,04,22,13,24,12.80
2010,04,22,13,25,12.80
2010,04,22,13,26,12.90
2010,04,22,13,27,12.90
2010,04,22,13,28,12.90
2010,04,22,13,29,12.90
2010,04,22,13,30,12.90
2010,04,22,13,31,12.90
2010,04,22,13,32,12.90
2010,04,22,13,33,13.00
2010,04,22,13,34,13.10
2010,04,22,13,35,13.20
2010,04,22,13,36,13.30
2010,04,22,13,37,13.40
2010,04,22,13,38,13.50
2010,04,22,13,39,13.50
2010,04,22,13,40,13.60
2010,04,22,13,41,13.70
2010,04,22,13,42,13.70
2010,04,22,13,43,13.70
2010,04,22,13,44,13.70
2010,04,22,13,45,13.60
2010,04,22,13,46,13.60
2010,04,22,13,47,13.60
2010,04,22,13,48,13.60
2010,04,22,13,49,13.60
2010,04,22,13,50,13.50
2010,04,22,13,51,13.50
2010,04,22,13,52,13.50
2010,04,22,13,53,13.40
2010,04,22,13,54,13.40
2010,04,22,13,55,13.30
2010,04,22,13,56,13.20
2010,04,22,13,57,13.20
2010,04,22,13,58,13.20
2010,04,22,13,59,13.20
2010,04,22,14,00,13.20
2010,04,22,14,01,13.20
2010,04,22,14,02,13.20
2010,04,22,14,03,13.30
2010,04,22,14,04,13.40
2010,04,22,14,05,13.40
2010,04,22,14,06,13.50
2010,04,22,14,07,13.50
2010,04,22,14,08,13.60
2010,04,22,14,09,13.60
2010,04,22,14,10,13.60
2010,04,22,14,11,13.60
2010,04,22,14,12,13.70
2010,04,22,14,13,13.70
2010,04,22,14,14,13.70
2010,04,22,14,15,13.60
2010,04,22,14,16,13.60
2010,04,22,14,17,13.70
2010,04,22,14,18,13.70
2010,04,22,14,19,13.80
2010,04,22,14,20,13.80
2010,04,22,14,21,13.90
2010,04,22,14,22,13.90
2010,04,22,14,23,14.00
2010,04,22,14,24,14.00
2010,04,22,14,25,14.10
2010,04,22,14,26,14.10
2010,04,22,14,27,14.20
2010,04,22,14,28,14.30
2010,04,22,14,29,14.30
2010,04,22,14,30,14.40
2010,04,22,14,31,14.40
2010,04,22,14,32,14.50
2010,04,22,14,33,14.60
2010,04,22,14,34,14.70
2010,04,22,14,35,14.80
2010,04,22,14,36,14.80
2010,04,22,14,37,14.70
2010,04,22,14,38,14.70
2010,04,22,14,39,14.70
2010,04,22,14,40,14.70
2010,04,22,14,41,14.70
2010,04,22,14,42,14.70
2010,04,22,14,43,14.60
2010,04,22,14,44,14.60
2010,04,22,14,45,14.60
2010,04,22,14,46,14.70
2010,04,22,14,47,14.70
2010,04,22,14,48,14.60
2010,04,22,14,49,14.60
2010,04,22,14,50,14.60
2010,04,22,14,51,14.60
2010,04,22,14,52,14.60
2010,04,22,14,53,14.60
2010,04,22,14,54,14.70
2010,04,22,14,55,14.70
2010,04,22,14,56,14.70
2010,04,22,14,57,14.70
2010,04,22,14,58,14.70
2010,04,22,14,59,14.80
2010,04,22,15,00,14.80
2010,04,22,15,01,14.70
2010,04,22,15,02,14.60
2010,04,22,15,03,14.60
2010,04,22,15,04,14.60
2010,04,22,15,05,14.60
2010,04,22,15,06,14.60
2010,04,22,15,07,14.70
2010,04,22,15,08,14.80
2010,04,22,15,09,14.90
2010,04,22,15,10,14.90
2010,04,22,15,11,14.90
2010,04,22,15,12,14.90
2010,04,22,15,13,14.90
2010,04,22,15,14,14.90
2010,04,22,15,15,14.80
2010,04,22,15,16,14.80
2010,04,22,15,17,14.80
2010,04,22,15,18,14.70
2010,04,22,15,19,14.70
2010,04,22,15,20,14.80
2010,04,22,15,21,14.80
2010,04,22,15,22,14.80
2010,04,22,15,23,14.80
2010,04,22,15,24,14.80
2010,04,22,15,25,14.80
2010,04,22,15,26,14.80
2010,04,22,15,27,14.80
2010,04,22,15,28,14.70
2010,04,22,15,29,14.70
2010,04,22,15,30,14.70
2010,04,22,15,31,14.70
2010,04,22,15,32,14.70
2010,04,22,15,33,14.80
2010,04,22,15,34,14.80
2010,04,22,15,35,14.80
2010,04,22,15,36,14.80
2010,04,22,15,37,14.80
2010,04,22,15,38,14.80
2010,04,22,15,39,14.80
2010,04,22,15,40,14.80
2010,04,22,15,41,14.80
2010,04,22,15,42,14.80
2010,04,22,15,43,14.90
2010,04,22,15,44,15.00
2010,04,22,15,45,15.00
2010,04,22,15,46,14.90
2010,04,22,15,47,14.90
2010,04,22,15,48,14.90
2010,04,22,15,49,14.80
2010,04,22,15,50,14.90
2010,04,22,15,51,14.80
2010,04,22,15,52,14.80
2010,04,22,15,53,14.70
2010,04,22,15,54,14.70
2010,04,22,15,55,14.70
2010,04,22,15,56,14.70
2010,04,22,15,57,14.60
2010,04,22,15,58,14.50
2010,04,22,15,59,14.50
2010,04,22,16,00,14.40
2010,04,22,16,01,14.40
2010,04,22,16,02,14.40
2010,04,22,16,03,14.40
2010,04,22,16,04,14.50
2010,04,22,16,05,14.50
2010,04,22,16,06,14.50
2010,04,22,16,07,14.50
2010,04,22,16,08,14.50
2010,04,22,16,09,14.50
2010,04,22,16,10,14.50
2010,04,22,16,11,14.60
2010,04,22,16,12,14.60
2010,04,22,16,13,14.60
2010,04,22,16,14,14.70
2010,04,22,16,15,14.70
2010,04,22,16,16,14.60
2010,04,22,16,17,14.60
2010,04,22,16,18,14.50
2010,04,22,16,19,14.50
2010,04,22,16,20,14.40
2010,04,22,16,21,14.40
2010,04,22,16,22,14.40
2010,04,22,16,23,14.40
2010,04,22,16,24,14.50
2010,04,22,16,25,14.50
2010,04,22,16,26,14.50
2010,04,22,16,27,14.50
2010,04,22,16,28,14.40
2010,04,22,16,29,14.30
2010,04,22,16,30,14.30
2010,04,22,16,31,14.30
2010,04,22,16,32,14.30
2010,04,22,16,33,14.30
2010,04,22,16,34,14.30
2010,04,22,16,35,14.30
2010,04,22,16,36,14.20
2010,04,22,16,37,14.20
2010,04,22,16,38,14.10
2010,04,22,16,39,14.10
2010,04,22,16,40,14.10
2010,04,22,16,41,14.10
2010,04,22,16,42,14.10
2010,04,22,16,43,14.20
2010,04,22,16,44,14.20
2010,04,22,16,45,14.30
2010,04,22,16,46,14.30
2010,04,22,16,47,14.30
2010,04,22,16,48,14.30
2010,04,22,16,49,14.30
2010,04,22,16,50,14.30
2010,04,22,16,51,14.30
2010,04,22,16,52,14.30
2010,04,22,16,53,14.30
2010,04,22,16,54,14.30
2010,04,22,16,55,14.30
2010,04,22,16,56,14.30
2010,04,22,16,57,14.30
2010,04,22,16,58,14.40
2010,04,22,16,59,14.40
2010,04,22,17,00,14.40
2010,04,22,17,01,14.40
2010,04,22,17,02,14.40
2010,04,22,17,03,14.30
2010,04,22,17,04,14.30
2010,04,22,17,05,14.30
2010,04,22,17,06,14.20
2010,04,22,17,07,14.20
2010,04,22,17,08,14.20
2010,04,22,17,09,14.20
2010,04,22,17,10,14.20
2010,04,22,17,11,14.10
2010,04,22,17,12,14.00
2010,04,22,17,13,13.90
2010,04,22,17,14,13.90
2010,04,22,17,15,13.80
2010,04,22,17,16,13.80
2010,04,22,17,17,13.80
2010,04,22,17,18,13.90
2010,04,22,17,19,13.90
2010,04,22,17,20,13.90
2010,04,22,17,21,13.90
2010,04,22,17,22,14.00
2010,04,22,17,23,14.00
2010,04,22,17,24,14.00
2010,04,22,17,25,14.00
2010,04,22,17,26,14.10
2010,04,22,17,27,14.20
2010,04,22,17,28,14.20
2010,04,22,17,29,14.30
2010,04,22,17,30,14.30
2010,04,22,17,31,14.30
2010,04,22,17,32,14.30
2010,04,22,17,33,14.30
2010,04,22,17,34,14.20
2010,04,22,17,35,14.20
2010,04,22,17,36,14.10
2010,04,22,17,37,14.10
2010,04,22,17,38,14.10
2010,04,22,17,39,14.10
2010,04,22,17,40,14.10
2010,04,22,17,41,14.10
2010,04,22,17,42,14.20